Time,TemperatureF,DewpointF,PressureIn,WindDirection,WindDirectionDegrees,WindSpeedMPH,WindSpeedGustMPH,Humidity,HourlyPrecipIn,Conditions,Clouds,dailyrainin,SoftwareType,DateUTC
2013-07-23 00:01:00,68.2,68.2,29.90,SSW,207,3.6,6.5,100,0.00,,OVC007,0.00,VWS V14.01,2013-07-23 04:01:00,
2013-07-23 00:03:00,67.9,67.9,29.90,South,191,2.5,7.8,100,0.00,,OVC007,0.00,VWS V14.01,2013-07-23 04:03:00,
2013-07-23 00:05:00,68.0,68.0,29.90,South,191,2.5,2.5,100,0.00,,OVC007,0.00,VWS V14.01,2013-07-23 04:05:00,
2013-07-23 00:07:00,67.9,67.9,29.89,South,187,4.9,6.1,100,0.00,,OVC007,0.00,VWS V14.01,2013-07-23 04:07:00,
2013-07-23 00:13:00,67.9,67.9,29.89,SSE,163,2.5,4.5,100,0.00,,OVC007,0.00,VWS V14.01,2013-07-23 04:13:00,
2013-07-23 00:19:00,67.8,67.8,29.89,SSW,205,2.5,3.9,100,0.00,,OVC007,0.00,VWS V14.01,2013-07-23 04:19:00,
2013-07-23 00:25:00,68.0,68.0,29.89,SW,229,2.5,7.0,100,0.00,,OVC007,0.00,VWS V14.01,2013-07-23 04:25:00,
2013-07-23 00:31:00,67.8,67.8,29.88,South,186,2.5,5.7,100,0.00,,,0.00,VWS V14.01,2013-07-23 04:31:00,
2013-07-23 00:37:00,67.8,67.8,29.88,SSW,210,4.9,7.1,100,0.00,,,0.00,VWS V14.01,2013-07-23 04:37:00,
2013-07-23 00:43:00,67.8,67.8,29.88,SW,218,6.4,10.0,100,0.00,,,0.00,VWS V14.01,2013-07-23 04:43:00,
2013-07-23 00:49:00,67.8,67.8,29.87,SSE,158,2.5,7.4,100,0.00,,,0.00,VWS V14.01,2013-07-23 04:49:00,
2013-07-23 00:51:00,67.9,67.9,29.87,SSE,158,2.5,2.5,100,0.00,,,0.00,VWS V14.01,2013-07-23 04:51:00,
2013-07-23 00:57:00,67.8,67.8,29.87,SSW,193,5.2,7.2,100,0.00,,,0.00,VWS V14.01,2013-07-23 04:57:00,
2013-07-23 01:03:00,67.8,67.8,29.87,SW,231,5.1,6.8,100,0.00,,,0.00,VWS V14.01,2013-07-23 05:03:00,
2013-07-23 01:09:00,67.8,67.8,29.86,SW,217,2.5,7.5,100,0.00,,,0.00,VWS V14.01,2013-07-23 05:09:00,
2013-07-23 01:15:00,67.8,67.8,29.86,South,187,2.5,2.5,100,0.00,,,0.00,VWS V14.01,2013-07-23 05:15:00,
2013-07-23 01:21:00,67.9,67.9,29.86,SW,231,2.5,2.5,100,0.00,,,0.00,VWS V14.01,2013-07-23 05:21:00,
2013-07-23 01:27:00,67.8,67.8,29.86,SW,231,2.5,2.5,100,0.00,,,0.00,VWS V14.01,2013-07-23 05:27:00,
2013-07-23 01:33:00,67.7,67.7,29.86,SSW,200,2.5,6.4,100,0.00,,,0.00,VWS V14.01,2013-07-23 05:33:00,
2013-07-23 01:39:00,67.9,67.9,29.85,South,188,2.5,2.5,100,0.00,,,0.00,VWS V14.01,2013-07-23 05:39:00,
2013-07-23 01:45:00,67.8,67.8,29.85,SSW,204,2.5,6.5,100,0.00,,,0.00,VWS V14.01,2013-07-23 05:45:00,
2013-07-23 01:51:00,67.8,67.8,29.84,SSW,204,2.5,2.5,100,0.00,,,0.00,VWS V14.01,2013-07-23 05:51:00,
2013-07-23 01:57:00,67.8,67.8,29.84,SE,141,2.5,7.2,100,0.00,,,0.00,VWS V14.01,2013-07-23 05:57:00,
2013-07-23 02:03:00,67.7,67.7,29.84,SSW,202,2.5,2.5,100,0.00,,,0.00,VWS V14.01,2013-07-23 06:03:00,
2013-07-23 02:09:00,67.8,67.8,29.83,SE,134,2.5,2.5,100,0.00,,,0.00,VWS V14.01,2013-07-23 06:09:00,
2013-07-23 02:15:00,67.9,67.9,29.83,SE,134,2.5,2.5,100,0.00,,,0.00,VWS V14.01,2013-07-23 06:15:00,
2013-07-23 02:21:00,67.7,67.7,29.83,SE,134,2.5,2.5,100,0.00,,,0.00,VWS V14.01,2013-07-23 06:21:00,
2013-07-23 02:27:00,67.8,67.8,29.83,SE,134,2.5,2.5,100,0.00,,,0.00,VWS V14.01,2013-07-23 06:27:00,
2013-07-23 02:33:00,67.8,67.8,29.83,SE,134,2.5,2.5,100,0.00,,,0.00,VWS V14.01,2013-07-23 06:33:00,
2013-07-23 02:39:00,67.8,67.8,29.82,SE,134,2.5,2.5,100,0.00,,,0.00,VWS V14.01,2013-07-23 06:39:00,
2013-07-23 02:45:00,67.9,67.9,29.82,SE,134,2.5,2.5,100,0.00,,,0.00,VWS V14.01,2013-07-23 06:45:00,
2013-07-23 02:51:00,67.9,67.9,29.82,SE,134,2.5,2.5,100,0.00,,,0.00,VWS V14.01,2013-07-23 06:51:00,
2013-07-23 02:57:00,67.9,67.9,29.82,South,181,2.5,2.5,100,0.00,,,0.00,VWS V14.01,2013-07-23 06:57:00,
2013-07-23 03:03:00,67.9,67.9,29.82,South,181,2.5,2.5,100,0.00,,,0.00,VWS V14.01,2013-07-23 07:03:00,
2013-07-23 03:09:00,68.0,68.0,29.81,South,181,2.5,2.5,100,0.00,,,0.00,VWS V14.01,2013-07-23 07:09:00,
2013-07-23 03:15:00,67.9,67.9,29.81,SE,142,2.5,2.5,100,0.00,,,0.00,VWS V14.01,2013-07-23 07:15:00,
2013-07-23 03:21:00,67.9,67.9,29.81,SE,142,2.5,2.5,100,0.00,,,0.00,VWS V14.01,2013-07-23 07:21:00,
2013-07-23 03:27:00,67.9,67.9,29.80,SE,142,2.5,2.5,100,0.00,,,0.00,VWS V14.01,2013-07-23 07:27:00,
2013-07-23 03:33:00,68.0,68.0,29.80,SE,142,2.5,2.5,100,0.00,,,0.00,VWS V14.01,2013-07-23 07:33:00,
2013-07-23 03:39:00,68.1,68.1,29.80,SE,142,2.5,2.5,100,0.00,,,0.00,VWS V14.01,2013-07-23 07:39:00,
2013-07-23 03:45:00,68.1,68.1,29.79,SE,142,2.5,2.5,100,0.00,,,0.00,VWS V14.01,2013-07-23 07:45:00,
2013-07-23 03:51:00,68.2,68.2,29.79,SSW,205,2.5,2.9,100,0.00,,,0.00,VWS V14.01,2013-07-23 07:51:00,
2013-07-23 03:57:00,68.3,68.3,29.79,SSW,205,2.5,2.5,100,0.00,,,0.00,VWS V14.01,2013-07-23 07:57:00,
2013-07-23 04:03:00,68.2,68.2,29.79,SSE,148,2.5,5.9,100,0.00,,,0.00,VWS V14.01,2013-07-23 08:03:00,
2013-07-23 04:09:00,68.3,68.3,29.79,SSE,148,2.5,2.5,100,0.00,,,0.00,VWS V14.01,2013-07-23 08:09:00,
2013-07-23 04:15:00,68.2,68.2,29.78,SSE,148,2.5,2.5,100,0.00,,,0.00,VWS V14.01,2013-07-23 08:15:00,
2013-07-23 04:21:00,68.3,68.3,29.78,SE,135,2.5,2.5,100,0.00,,,0.00,VWS V14.01,2013-07-23 08:21:00,
2013-07-23 04:27:00,68.2,68.2,29.77,SE,135,2.5,2.5,100,0.00,,,0.00,VWS V14.01,2013-07-23 08:27:00,
2013-07-23 04:33:00,68.3,68.3,29.77,SE,135,2.5,2.5,100,0.00,,,0.00,VWS V14.01,2013-07-23 08:33:00,
2013-07-23 04:39:00,68.2,68.2,29.77,SE,135,2.5,2.5,100,0.00,,,0.00,VWS V14.01,2013-07-23 08:39:00,
2013-07-23 04:45:00,68.2,68.2,29.77,SE,135,2.5,2.5,100,0.00,,,0.00,VWS V14.01,2013-07-23 08:45:00,
2013-07-23 04:51:00,68.3,68.3,29.77,SE,135,2.5,2.5,100,0.00,,,0.00,VWS V14.01,2013-07-23 08:51:00,
2013-07-23 04:57:00,68.4,68.4,29.77,SE,135,2.5,2.5,100,0.00,,,0.00,VWS V14.01,2013-07-23 08:57:00,
2013-07-23 05:03:00,68.4,68.4,29.77,SE,135,2.5,2.5,100,0.00,,,0.00,VWS V14.01,2013-07-23 09:03:00,
2013-07-23 05:09:00,68.3,68.3,29.77,SSE,167,2.5,4.9,100,0.00,,,0.00,VWS V14.01,2013-07-23 09:09:00,
2013-07-23 05:15:00,68.5,68.5,29.77,SSE,167,2.5,2.5,100,0.00,,,0.00,VWS V14.01,2013-07-23 09:15:00,
2013-07-23 05:21:00,68.4,68.4,29.77,SSE,167,2.5,2.5,100,0.00,,,0.00,VWS V14.01,2013-07-23 09:21:00,
2013-07-23 05:27:00,68.4,68.4,29.76,SE,138,2.5,7.2,100,0.00,,,0.00,VWS V14.01,2013-07-23 09:27:00,
2013-07-23 05:33:00,68.5,68.5,29.76,South,190,6.2,7.8,100,0.00,,,0.00,VWS V14.01,2013-07-23 09:33:00,
2013-07-23 05:39:00,68.4,68.4,29.76,SE,129,2.5,2.5,100,0.00,,,0.00,VWS V14.01,2013-07-23 09:39:00,
2013-07-23 05:45:00,68.5,68.5,29.76,SE,129,2.5,2.5,100,0.00,,,0.00,VWS V14.01,2013-07-23 09:45:00,
2013-07-23 05:51:00,68.4,68.4,29.76,South,191,2.5,7.3,100,0.00,,,0.00,VWS V14.01,2013-07-23 09:51:00,
2013-07-23 05:57:00,68.7,68.7,29.75,South,188,2.5,2.5,100,0.00,,,0.00,VWS V14.01,2013-07-23 09:57:00,
2013-07-23 06:03:00,68.7,68.7,29.75,South,188,2.5,2.5,100,0.00,,-RA,0.00,VWS V14.01,2013-07-23 10:03:00,
2013-07-23 06:09:00,68.6,68.6,29.75,South,172,2.5,5.0,100,0.00,,-RA,0.00,VWS V14.01,2013-07-23 10:09:00,
2013-07-23 06:15:00,68.6,68.6,29.75,South,187,2.5,5.3,100,0.00,,-RA,0.00,VWS V14.01,2013-07-23 10:15:00,
2013-07-23 06:21:00,68.6,68.6,29.75,South,187,2.5,2.5,100,0.00,,-RA,0.00,VWS V14.01,2013-07-23 10:21:00,
2013-07-23 06:27:00,68.6,68.6,29.75,WSW,242,4.4,6.4,100,0.00,,-RA,0.00,VWS V14.01,2013-07-23 10:27:00,
2013-07-23 06:33:00,68.8,68.8,29.75,South,183,6.5,7.0,100,0.00,,-RA,0.00,VWS V14.01,2013-07-23 10:33:00,
2013-07-23 06:39:00,68.8,68.8,29.75,SW,236,2.5,2.5,100,0.00,,-RA,0.00,VWS V14.01,2013-07-23 10:39:00,
2013-07-23 06:45:00,68.9,68.9,29.75,South,180,2.5,6.3,100,0.00,,-RA,0.00,VWS V14.01,2013-07-23 10:45:00,
2013-07-23 06:51:00,68.9,68.9,29.75,SW,214,2.5,2.5,100,0.00,,-RA,0.00,VWS V14.01,2013-07-23 10:51:00,
2013-07-23 06:57:00,69.0,69.0,29.74,South,180,3.9,6.2,100,0.00,,RA,0.00,VWS V14.01,2013-07-23 10:57:00,
2013-07-23 07:03:00,68.8,68.8,29.74,SSW,193,6.2,6.5,100,0.00,,-RA,0.00,VWS V14.01,2013-07-23 11:03:00,
2013-07-23 07:09:00,68.8,68.8,29.74,SE,132,3.2,7.3,100,0.00,,-RA,0.00,VWS V14.01,2013-07-23 11:09:00,
2013-07-23 07:15:00,68.9,68.9,29.74,South,187,2.5,2.9,100,0.00,,-RA,0.00,VWS V14.01,2013-07-23 11:15:00,
2013-07-23 07:21:00,69.1,69.1,29.73,SSE,160,3.2,5.0,100,0.00,,-RA,0.00,VWS V14.01,2013-07-23 11:21:00,
2013-07-23 07:27:00,69.1,69.1,29.73,South,186,4.5,5.9,100,0.00,,-RA,0.00,VWS V14.01,2013-07-23 11:27:00,
2013-07-23 07:33:00,69.4,69.4,29.73,South,174,2.5,2.5,100,0.00,,-RA,0.00,VWS V14.01,2013-07-23 11:33:00,
2013-07-23 07:39:00,69.7,69.7,29.73,SSW,193,3.5,4.7,100,0.00,,-RA,0.00,VWS V14.01,2013-07-23 11:39:00,
2013-07-23 07:45:00,69.9,69.9,29.72,South,174,2.5,5.0,100,0.00,,-RA,0.00,VWS V14.01,2013-07-23 11:45:00,
2013-07-23 07:51:00,70.2,70.2,29.72,SW,229,3.7,5.2,100,0.00,,-RA,0.00,VWS V14.01,2013-07-23 11:51:00,
2013-07-23 07:57:00,70.3,70.3,29.72,SSE,163,2.5,5.4,100,0.00,,-RA,0.00,VWS V14.01,2013-07-23 11:57:00,
2013-07-23 08:03:00,70.2,70.2,29.72,South,177,4.1,6.0,100,0.00,,-RA,0.00,VWS V14.01,2013-07-23 12:03:00,
2013-07-23 08:09:00,70.3,70.3,29.71,South,170,4.9,4.9,100,0.00,,-RA,0.00,VWS V14.01,2013-07-23 12:09:00,
2013-07-23 08:15:00,70.4,70.4,29.71,SSW,193,2.5,6.1,100,0.00,,-RA,0.00,VWS V14.01,2013-07-23 12:15:00,
2013-07-23 08:21:00,70.2,70.2,29.71,SSE,165,2.5,2.5,100,0.00,,-RA,0.00,VWS V14.01,2013-07-23 12:21:00,
2013-07-23 08:27:00,70.1,70.1,29.71,SSW,201,5.1,5.1,100,0.00,,RA,0.00,VWS V14.01,2013-07-23 12:27:00,
2013-07-23 08:33:00,70.2,70.2,29.71,SSW,200,2.5,2.5,100,0.00,,RA,0.00,VWS V14.01,2013-07-23 12:33:00,
2013-07-23 08:39:00,70.1,70.1,29.71,WSW,238,3.7,6.2,100,0.00,,RA,0.00,VWS V14.01,2013-07-23 12:39:00,
2013-07-23 08:45:00,70.0,70.0,29.69,SSE,156,2.5,5.1,100,0.00,,RA,0.00,VWS V14.01,2013-07-23 12:45:00,
2013-07-23 08:51:00,70.0,70.0,29.69,South,191,4.4,4.4,100,0.00,,RA,0.00,VWS V14.01,2013-07-23 12:51:00,
2013-07-23 08:57:00,69.9,69.9,29.69,SW,231,4.6,5.5,100,0.00,,RA,0.00,VWS V14.01,2013-07-23 12:57:00,
2013-07-23 09:03:00,70.1,70.1,29.69,WSW,246,2.5,2.5,100,0.00,,-RA,0.00,VWS V14.01,2013-07-23 13:03:00,
2013-07-23 09:09:00,70.2,70.2,29.69,WSW,246,2.5,2.5,100,0.00,,-RA,0.00,VWS V14.01,2013-07-23 13:09:00,
2013-07-23 09:15:00,70.5,70.5,29.69,WSW,246,2.5,2.5,100,0.00,,-RA,0.00,VWS V14.01,2013-07-23 13:15:00,
2013-07-23 09:21:00,70.5,70.5,29.69,WSW,246,2.5,2.5,100,0.00,,-RA,0.00,VWS V14.01,2013-07-23 13:21:00,
2013-07-23 09:27:00,70.9,70.9,29.68,WSW,246,2.5,2.5,100,0.00,,-RA,0.00,VWS V14.01,2013-07-23 13:27:00,
2013-07-23 09:33:00,71.4,71.4,29.68,WSW,246,2.5,2.5,100,0.00,,-RA,0.00,VWS V14.01,2013-07-23 13:33:00,
2013-07-23 09:39:00,72.4,72.4,29.68,WSW,246,2.5,2.5,100,0.00,,,0.00,VWS V14.01,2013-07-23 13:39:00,
2013-07-23 09:45:00,73.6,73.6,29.68,WSW,246,2.5,2.5,100,0.00,,,0.00,VWS V14.01,2013-07-23 13:45:00,
2013-07-23 09:51:00,73.8,73.8,29.68,WSW,246,2.5,2.5,100,0.00,,,0.00,VWS V14.01,2013-07-23 13:51:00,
2013-07-23 09:57:00,73.7,73.7,29.67,WSW,246,2.5,2.5,100,0.00,,,0.00,VWS V14.01,2013-07-23 13:57:00,
2013-07-23 10:03:00,73.8,73.8,29.67,WSW,246,2.5,2.5,100,0.00,,-RA,0.00,VWS V14.01,2013-07-23 14:03:00,
2013-07-23 10:09:00,74.9,74.9,29.66,WSW,246,2.5,2.5,100,0.00,,-RA,0.00,VWS V14.01,2013-07-23 14:09:00,
2013-07-23 10:15:00,75.8,75.8,29.66,WSW,246,2.5,2.5,100,0.00,,,0.00,VWS V14.01,2013-07-23 14:15:00,
2013-07-23 10:21:00,75.9,75.9,29.66,South,181,2.5,2.5,100,0.00,,,0.00,VWS V14.01,2013-07-23 14:21:00,
2013-07-23 10:27:00,75.9,75.9,29.66,South,181,2.5,2.5,100,0.00,,OVC100,0.00,VWS V14.01,2013-07-23 14:27:00,
2013-07-23 10:33:00,75.1,75.1,29.66,SSW,204,2.5,7.3,100,0.00,,OVC100,0.00,VWS V14.01,2013-07-23 14:33:00,
2013-07-23 10:39:00,74.8,74.8,29.66,SE,146,2.5,2.5,100,0.00,,OVC100,0.00,VWS V14.01,2013-07-23 14:39:00,
2013-07-23 10:45:00,75.0,75.0,29.66,SE,146,2.5,2.5,100,0.00,,BKN100,0.00,VWS V14.01,2013-07-23 14:45:00,
2013-07-23 10:51:00,75.5,75.5,29.66,SE,146,2.5,2.5,100,0.00,,BKN100,0.00,VWS V14.01,2013-07-23 14:51:00,
2013-07-23 10:57:00,76.4,76.4,29.66,East,94,2.5,2.5,100,0.00,,BKN100,0.00,VWS V14.01,2013-07-23 14:57:00,
2013-07-23 11:03:00,76.8,76.8,29.66,East,94,2.5,2.5,100,0.00,,BKN200,0.00,VWS V14.01,2013-07-23 15:03:00,
2013-07-23 11:09:00,76.4,76.4,29.66,East,94,2.5,2.5,100,0.00,,BKN200,0.00,VWS V14.01,2013-07-23 15:09:00,
2013-07-23 11:15:00,76.7,76.7,29.66,East,94,2.5,2.5,100,0.00,,BKN200,0.00,VWS V14.01,2013-07-23 15:15:00,
2013-07-23 11:21:00,78.8,78.8,29.65,SSW,193,2.5,4.0,100,0.00,,BKN200,0.00,VWS V14.01,2013-07-23 15:21:00,
2013-07-23 11:27:00,81.2,81.2,29.66,SW,221,4.0,6.2,100,0.00,,BKN200,0.00,VWS V14.01,2013-07-23 15:27:00,
2013-07-23 11:33:00,80.9,80.9,29.65,SSW,210,2.5,5.2,100,0.00,,BKN200,0.00,VWS V14.01,2013-07-23 15:33:00,
2013-07-23 11:39:00,79.3,79.3,29.65,SSW,210,7.0,9.1,100,0.00,,BKN200,0.00,VWS V14.01,2013-07-23 15:39:00,
2013-07-23 11:45:00,79.1,79.1,29.65,SE,127,2.5,3.9,100,0.00,,BKN200,0.00,VWS V14.01,2013-07-23 15:45:00,
2013-07-23 11:51:00,79.5,79.5,29.64,WSW,243,6.4,8.3,100,0.00,,BKN200,0.00,VWS V14.01,2013-07-23 15:51:00,
2013-07-23 11:57:00,79.2,79.2,29.64,SSE,163,2.5,8.0,100,0.00,,BKN200,0.00,VWS V14.01,2013-07-23 15:57:00,
2013-07-23 12:03:00,78.9,78.9,29.64,WNW,287,2.5,8.2,100,0.00,,OVC080,0.00,VWS V14.01,2013-07-23 16:03:00,
2013-07-23 12:09:00,78.2,78.2,29.64,West,269,2.5,6.3,100,0.00,,OVC080,0.00,VWS V14.01,2013-07-23 16:09:00,
2013-07-23 12:15:00,78.8,78.8,29.63,WSW,243,3.2,6.7,100,0.00,,OVC080,0.00,VWS V14.01,2013-07-23 16:15:00,
2013-07-23 12:21:00,81.5,81.5,29.63,WSW,245,7.0,7.0,100,0.00,,OVC080,0.00,VWS V14.01,2013-07-23 16:21:00,
2013-07-23 12:27:00,82.4,82.4,29.62,West,276,3.1,7.6,100,0.00,,OVC080,0.00,VWS V14.01,2013-07-23 16:27:00,
2013-07-23 12:33:00,81.7,81.7,29.62,WSW,249,4.6,6.8,100,0.00,,OVC080,0.00,VWS V14.01,2013-07-23 16:33:00,
2013-07-23 12:39:00,80.4,80.4,29.62,East,89,3.5,8.8,100,0.00,,OVC080,0.00,VWS V14.01,2013-07-23 16:39:00,
2013-07-23 12:45:00,80.4,80.4,29.61,West,274,2.5,2.5,100,0.00,,OVC080,0.00,VWS V14.01,2013-07-23 16:45:00,
2013-07-23 12:51:00,79.7,79.7,29.61,WNW,285,5.6,9.6,100,0.00,,OVC080,0.00,VWS V14.01,2013-07-23 16:51:00,
2013-07-23 12:57:00,80.0,80.0,29.61,SSW,205,2.5,7.9,100,0.00,,OVC080,0.00,VWS V14.01,2013-07-23 16:57:00,
2013-07-23 13:03:00,80.8,80.8,29.61,WSW,252,3.9,6.7,100,0.00,,RA,0.00,VWS V14.01,2013-07-23 17:03:00,
2013-07-23 13:09:00,80.9,80.9,29.60,SW,225,4.4,8.9,100,0.00,, +RA,0.00,VWS V14.01,2013-07-23 17:09:00,
2013-07-23 13:15:00,79.5,79.5,29.60,WNW,298,6.2,7.7,100,0.00,, +RA,0.00,VWS V14.01,2013-07-23 17:15:00,
2013-07-23 13:21:00,79.2,79.2,29.60,WSW,248,6.8,10.4,100,0.00,, +RA,0.00,VWS V14.01,2013-07-23 17:21:00,
2013-07-23 13:27:00,82.6,82.2,29.60,WSW,257,7.8,7.8,99,0.00,, +RA,0.00,VWS V14.01,2013-07-23 17:27:00,
2013-07-23 13:33:00,84.3,82.8,29.60,SW,214,5.2,7.5,95,0.00,, +RA,0.00,VWS V14.01,2013-07-23 17:33:00,
2013-07-23 13:39:00,81.6,80.5,29.60,SW,229,7.5,15.4,97,0.00,,-RA,0.00,VWS V14.01,2013-07-23 17:39:00,
2013-07-23 13:45:00,81.7,80.8,29.60,West,267,6.7,14.9,97,0.00,,-RA,0.00,VWS V14.01,2013-07-23 17:45:00,
2013-07-23 13:51:00,83.1,81.8,29.60,West,280,6.1,7.0,96,0.00,,-RA,0.00,VWS V14.01,2013-07-23 17:51:00,
2013-07-23 13:57:00,83.4,81.9,29.59,SSW,200,3.7,8.0,95,0.00,,-RA,0.00,VWS V14.01,2013-07-23 17:57:00,
2013-07-23 14:03:00,83.4,81.4,29.59,WNW,287,12.7,13.0,94,0.00,,-RA,0.00,VWS V14.01,2013-07-23 18:03:00,
2013-07-23 14:09:00,82.7,81.7,29.58,NNW,332,3.1,6.2,97,0.00,,-RA,0.00,VWS V14.01,2013-07-23 18:09:00,
2013-07-23 14:15:00,82.1,80.8,29.58,SW,224,6.0,10.1,96,0.00,,-RA,0.00,VWS V14.01,2013-07-23 18:15:00,
2013-07-23 14:21:00,83.4,81.8,29.58,SE,124,4.6,6.7,95,0.00,,-RA,0.00,VWS V14.01,2013-07-23 18:21:00,
2013-07-23 14:27:00,81.5,80.5,29.58,South,170,7.1,11.1,97,0.00,,-RA,0.00,VWS V14.01,2013-07-23 18:27:00,
2013-07-23 14:33:00,81.9,80.9,29.58,West,278,3.7,11.8,97,0.00,,-RA,0.00,VWS V14.01,2013-07-23 18:33:00,
2013-07-23 14:39:00,82.6,81.2,29.58,WSW,252,6.6,10.4,96,0.00,,-RA,0.00,VWS V14.01,2013-07-23 18:39:00,
2013-07-23 14:45:00,83.6,81.5,29.58,SSW,208,4.4,9.1,93,0.00,, +RA,0.00,VWS V14.01,2013-07-23 18:45:00,
2013-07-23 14:51:00,82.6,80.9,29.58,North,350,4.9,9.2,94,0.00,, +RA,0.00,VWS V14.01,2013-07-23 18:51:00,
2013-07-23 14:57:00,81.0,80.0,29.57,West,266,4.6,8.4,97,0.00,, +RA,0.00,VWS V14.01,2013-07-23 18:57:00,
2013-07-23 15:03:00,82.1,80.8,29.57,West,274,5.9,8.5,96,0.00,,-RA,0.00,VWS V14.01,2013-07-23 19:03:00,
2013-07-23 15:09:00,82.8,81.2,29.57,SSW,204,6.7,10.3,95,0.00,,-RA,0.00,VWS V14.01,2013-07-23 19:09:00,
2013-07-23 15:15:00,83.0,81.2,29.57,West,281,10.2,11.4,94,0.00,,-RA,0.00,VWS V14.01,2013-07-23 19:15:00,
2013-07-23 15:21:00,82.6,81.2,29.57,NNW,339,7.9,11.8,95,0.00,,-RA,0.00,VWS V14.01,2013-07-23 19:21:00,
2013-07-23 15:29:00,82.8,81.5,29.56,North,6,4.7,7.4,96,0.00,,-RA,0.00,VWS V14.01,2013-07-23 19:29:00,
2013-07-23 15:37:00,82.9,81.3,29.56,WSW,249,5.2,8.7,95,0.00,,-RA,0.00,VWS V14.01,2013-07-23 19:37:00,
2013-07-23 15:43:00,82.3,80.8,29.56,West,273,4.4,9.4,95,0.00,,-RA,0.00,VWS V14.01,2013-07-23 19:43:00,
2013-07-23 15:49:00,82.9,80.8,29.56,NW,307,6.8,14.7,94,0.00,,-RA,0.00,VWS V14.01,2013-07-23 19:49:00,
2013-07-23 15:57:00,82.5,81.1,29.56,SW,231,4.1,10.1,96,0.00,,-RA,0.00,VWS V14.01,2013-07-23 19:57:00,
2013-07-23 16:03:00,82.1,80.1,29.56,NNW,333,6.8,10.0,94,0.00,,BKN180,0.00,VWS V14.01,2013-07-23 20:03:00,
2013-07-23 16:09:00,81.7,80.6,29.57,NW,311,5.6,8.2,96,0.00,,BKN180,0.00,VWS V14.01,2013-07-23 20:09:00,
2013-07-23 16:15:00,82.2,80.3,29.57,NW,309,6.8,11.3,94,0.00,,BKN180,0.00,VWS V14.01,2013-07-23 20:15:00,
2013-07-23 16:21:00,82.0,80.4,29.56,West,276,8.5,10.5,95,0.00,,BKN180,0.00,VWS V14.01,2013-07-23 20:21:00,
2013-07-23 16:31:00,81.7,80.2,29.56,West,264,7.6,7.8,95,0.00,,-RA,0.00,VWS V14.01,2013-07-23 20:31:00,
2013-07-23 16:37:00,81.4,79.8,29.56,NW,305,8.3,9.7,95,0.00,,-RA,0.00,VWS V14.01,2013-07-23 20:37:00,
2013-07-23 16:45:00,80.9,79.7,29.56,SSW,207,3.9,6.5,96,0.00,,-RA,0.00,VWS V14.01,2013-07-23 20:45:00,
2013-07-23 16:51:00,81.0,79.7,29.56,NE,46,3.2,9.4,96,0.00,, +RA,0.00,VWS V14.01,2013-07-23 20:51:00,
2013-07-23 16:57:00,81.3,80.2,29.55,West,281,2.9,6.0,96,0.00,, +RA,0.00,VWS V14.01,2013-07-23 20:57:00,
2013-07-23 17:03:00,80.9,80.0,29.55,NNE,18,6.2,7.9,97,0.00,,-RA,0.00,VWS V14.01,2013-07-23 21:03:00,
2013-07-23 17:09:00,81.3,80.4,29.55,WNW,287,3.7,5.2,97,0.00,,-RA,0.00,VWS V14.01,2013-07-23 21:09:00,
2013-07-23 17:15:00,82.1,80.8,29.56,West,278,5.5,6.8,96,0.00,,-RA,0.00,VWS V14.01,2013-07-23 21:15:00,
2013-07-23 17:21:00,82.6,81.2,29.56,WSW,239,6.1,7.0,95,0.00,,-RA,0.00,VWS V14.01,2013-07-23 21:21:00,
2013-07-23 17:27:00,82.4,81.0,29.56,NNE,28,5.8,6.2,96,0.00,,,0.00,VWS V14.01,2013-07-23 21:27:00,
2013-07-23 17:33:00,80.6,80.1,29.56,NNE,15,4.7,5.4,98,0.00,,,0.00,VWS V14.01,2013-07-23 21:33:00,
2013-07-23 17:39:00,80.6,80.4,29.56,North,6,4.4,5.5,99,0.00,,,0.00,VWS V14.01,2013-07-23 21:39:00,
2013-07-23 17:45:00,79.5,79.5,29.57,ENE,77,3.9,5.5,100,0.00,,,0.00,VWS V14.01,2013-07-23 21:45:00,
2013-07-23 17:53:00,75.8,75.8,29.58,ENE,69,7.2,7.2,100,0.00,,,0.00,VWS V14.01,2013-07-23 21:53:00,
2013-07-23 17:59:00,75.1,75.1,29.58,NW,304,4.7,9.1,100,0.00,,-RA,0.00,VWS V14.01,2013-07-23 21:59:00,
2013-07-23 18:05:00,74.7,74.7,29.58,SSE,159,2.5,2.5,100,0.00,,-RA,0.00,VWS V14.01,2013-07-23 22:05:00,
2013-07-23 18:11:00,74.4,74.4,29.59,West,274,3.7,3.8,100,0.00,,-RA,0.00,VWS V14.01,2013-07-23 22:11:00,
2013-07-23 18:17:00,74.2,74.2,29.59,WSW,243,5.0,5.7,100,0.00,,BKN130,0.00,VWS V14.01,2013-07-23 22:17:00,
2013-07-23 18:23:00,74.2,74.2,29.59,NE,56,3.1,7.9,100,0.00,,BKN130,0.00,VWS V14.01,2013-07-23 22:23:00,
2013-07-23 18:31:00,73.7,73.7,29.59,NNW,342,4.5,9.0,100,0.00,,-RA,0.00,VWS V14.01,2013-07-23 22:31:00,
2013-07-23 18:37:00,71.8,71.8,29.59,NE,51,4.2,7.3,100,0.00,,-RA,0.00,VWS V14.01,2013-07-23 22:37:00,
2013-07-23 18:43:00,71.1,71.1,29.59,WSW,257,2.8,3.1,100,0.00,,-RA,0.00,VWS V14.01,2013-07-23 22:43:00,
2013-07-23 18:49:00,71.1,71.1,29.59,WSW,257,2.5,2.5,100,0.00,,-RA,0.00,VWS V14.01,2013-07-23 22:49:00,
2013-07-23 18:55:00,71.4,71.4,29.59,West,281,3.9,4.9,100,0.00,,-RA,0.00,VWS V14.01,2013-07-23 22:55:00,
2013-07-23 19:01:00,71.3,71.3,29.60,West,278,4.8,7.1,100,0.00,,BKN260,0.00,VWS V14.01,2013-07-23 23:01:00,
2013-07-23 19:07:00,71.2,71.2,29.59,West,269,4.1,4.6,100,0.00,,BKN260,0.00,VWS V14.01,2013-07-23 23:07:00,
2013-07-23 19:13:00,71.3,71.3,29.59,SW,235,3.5,5.9,100,0.00,,BKN260,0.00,VWS V14.01,2013-07-23 23:13:00,
2013-07-23 19:19:00,71.4,71.4,29.58,NW,326,3.9,5.2,100,0.00,,BKN260,0.00,VWS V14.01,2013-07-23 23:19:00,
2013-07-23 19:25:00,71.4,71.4,29.59,WNW,283,3.4,4.3,100,0.00,,BKN260,0.00,VWS V14.01,2013-07-23 23:25:00,
2013-07-23 19:31:00,71.5,71.5,29.58,West,267,2.5,3.0,100,0.00,,BKN260,0.00,VWS V14.01,2013-07-23 23:31:00,
2013-07-23 19:37:00,71.3,71.3,29.59,WSW,249,3.3,6.2,100,0.00,,BKN260,0.00,VWS V14.01,2013-07-23 23:37:00,
2013-07-23 19:43:00,71.4,71.4,29.59,SW,233,3.2,4.6,100,0.00,,BKN260,0.00,VWS V14.01,2013-07-23 23:43:00,
2013-07-23 19:53:00,71.3,71.3,29.60,SW,233,2.5,2.5,100,0.00,,BKN260,0.00,VWS V14.01,2013-07-23 23:53:00,
2013-07-23 19:59:00,70.9,70.9,29.60,SW,233,2.5,2.5,100,0.00,,BKN260,0.00,VWS V14.01,2013-07-23 23:59:00,
2013-07-23 20:05:00,71.2,71.2,29.59,WSW,252,2.5,2.5,100,0.00,,BKN260,0.00,VWS V14.01,2013-07-24 00:05:00,
2013-07-23 20:11:00,71.1,71.1,29.60,SSW,205,2.5,4.1,100,0.00,,BKN260,0.00,VWS V14.01,2013-07-24 00:11:00,
2013-07-23 20:17:00,70.8,70.8,29.60,SSW,205,2.5,2.5,100,0.00,,BKN260,0.00,VWS V14.01,2013-07-24 00:17:00,
2013-07-23 20:23:00,70.7,70.7,29.60,SSW,205,2.5,2.5,100,0.00,,BKN260,0.00,VWS V14.01,2013-07-24 00:23:00,
2013-07-23 20:29:00,70.4,70.4,29.60,SSW,205,2.5,2.5,100,0.00,,BKN260,0.00,VWS V14.01,2013-07-24 00:29:00,
2013-07-23 20:35:00,70.3,70.3,29.60,NE,44,2.5,2.5,100,0.00,,BKN260,0.00,VWS V14.01,2013-07-24 00:35:00,
2013-07-23 20:41:00,70.3,70.3,29.61,NE,44,2.5,2.5,100,0.00,,BKN260,0.00,VWS V14.01,2013-07-24 00:41:00,
2013-07-23 20:47:00,70.4,70.4,29.60,SSW,202,2.5,4.1,100,0.00,,BKN260,0.00,VWS V14.01,2013-07-24 00:47:00,
2013-07-23 20:53:00,70.3,70.3,29.61,SSW,202,2.5,2.5,100,0.00,,BKN260,0.00,VWS V14.01,2013-07-24 00:53:00,
2013-07-23 21:01:00,70.3,70.3,29.61,SSW,202,2.5,2.5,100,0.00,,BKN260,0.00,VWS V14.01,2013-07-24 01:01:00,
2013-07-23 21:07:00,70.3,70.3,29.61,SSW,202,2.5,2.5,100,0.00,,BKN260,0.00,VWS V14.01,2013-07-24 01:07:00,
2013-07-23 21:13:00,70.3,70.3,29.61,SSW,202,2.5,2.5,100,0.00,,BKN260,0.00,VWS V14.01,2013-07-24 01:13:00,
2013-07-23 21:19:00,70.4,70.4,29.61,SSW,202,2.5,2.5,100,0.00,,BKN260,0.00,VWS V14.01,2013-07-24 01:19:00,
2013-07-23 21:25:00,70.6,70.6,29.60,SSW,202,2.5,2.5,100,0.00,,BKN260,0.00,VWS V14.01,2013-07-24 01:25:00,
2013-07-23 21:33:00,70.3,70.3,29.60,SSW,202,2.5,2.5,100,0.00,,BKN260,0.00,VWS V14.01,2013-07-24 01:33:00,
2013-07-23 21:39:00,70.3,70.3,29.61,SSW,202,2.5,2.5,100,0.00,,BKN260,0.00,VWS V14.01,2013-07-24 01:39:00,
2013-07-23 21:45:00,70.4,70.4,29.61,SSW,202,2.5,2.5,100,0.00,,BKN260,0.00,VWS V14.01,2013-07-24 01:45:00,
2013-07-23 21:55:00,70.4,70.4,29.61,SSW,202,2.5,2.5,100,0.00,,BKN260,0.00,VWS V14.01,2013-07-24 01:55:00,
2013-07-23 22:01:00,70.3,70.3,29.61,SSW,202,2.5,2.5,100,0.00,,BKN260,0.00,VWS V14.01,2013-07-24 02:01:00,
2013-07-23 22:07:00,70.2,70.2,29.61,SSW,202,2.5,2.5,100,0.00,,BKN260,0.00,VWS V14.01,2013-07-24 02:07:00,
2013-07-23 22:15:00,70.2,70.2,29.61,SSW,202,2.5,2.5,100,0.00,,BKN260,0.00,VWS V14.01,2013-07-24 02:15:00,
2013-07-23 22:21:00,70.2,70.2,29.61,SSW,202,2.5,2.5,100,0.00,,BKN260,0.00,VWS V14.01,2013-07-24 02:21:00,
2013-07-23 22:27:00,70.1,70.1,29.61,SSW,202,2.5,2.5,100,0.00,,BKN260,0.00,VWS V14.01,2013-07-24 02:27:00,
2013-07-23 22:33:00,70.2,70.2,29.61,SSW,202,2.5,2.5,100,0.00,,BKN260,0.00,VWS V14.01,2013-07-24 02:33:00,
2013-07-23 22:41:00,69.9,69.9,29.61,SSW,202,2.5,2.5,100,0.00,,BKN260,0.00,VWS V14.01,2013-07-24 02:41:00,
2013-07-23 22:47:00,69.8,69.8,29.62,SSW,202,2.5,2.5,100,0.00,,BKN260,0.00,VWS V14.01,2013-07-24 02:47:00,
2013-07-23 22:53:00,69.5,69.5,29.61,SSW,202,2.5,2.5,100,0.00,,BKN260,0.00,VWS V14.01,2013-07-24 02:53:00,
2013-07-23 22:59:00,69.5,69.5,29.62,SSW,202,2.5,2.5,100,0.00,,BKN260,0.00,VWS V14.01,2013-07-24 02:59:00,
2013-07-23 23:05:00,69.6,69.6,29.62,SSW,202,2.5,2.5,100,0.00,,BKN110,0.00,VWS V14.01,2013-07-24 03:05:00,
2013-07-23 23:13:00,69.5,69.5,29.62,SSW,202,2.5,2.5,100,0.00,,BKN110,0.00,VWS V14.01,2013-07-24 03:13:00,
2013-07-23 23:19:00,69.7,69.7,29.62,SSW,202,2.5,2.5,100,0.00,,BKN110,0.00,VWS V14.01,2013-07-24 03:19:00,
2013-07-23 23:25:00,69.6,69.6,29.61,SSW,202,2.5,2.5,100,0.00,,BKN110,0.00,VWS V14.01,2013-07-24 03:25:00,
2013-07-23 23:31:00,69.6,69.6,29.61,SSW,202,2.5,2.5,100,0.00,,BKN110,0.00,VWS V14.01,2013-07-24 03:31:00,
2013-07-23 23:37:00,69.7,69.7,29.61,SSW,202,2.5,2.5,100,0.00,,BKN110,0.00,VWS V14.01,2013-07-24 03:37:00,
2013-07-23 23:43:00,69.7,69.7,29.61,SSW,202,2.5,2.5,100,0.00,,BKN110,0.00,VWS V14.01,2013-07-24 03:43:00,
2013-07-23 23:49:00,69.8,69.8,29.61,SSW,202,2.5,2.5,100,0.00,,BKN110,0.00,VWS V14.01,2013-07-24 03:49:00,